Miscellaneous Local Product
Issued by NWS North Platte, NE

Home | Current Version | Previous Version | Text Only | Print | Product List | Glossary On
Versions: 1 2 3 4 5 6 7 8 9 10 11 12 13 14 15 16 17 18 19 20 21 22 23 24 25 26 27 28 29 30 31 32 33 34 35 36 37 38 39 40 41 42 43 44 45 46 47 48 49 50
780
AXUS43 KLBF 172310
MISLBF


WESTERN AND NORTH CENTRAL NEBRASKA HOURLY WEATHER ROUNDUP
NATIONAL WEATHER SERVICE NORTH PLATTE NE
600 PM CDT THU AUG 17 2017

NOTE: "FAIR" INDICATES FEW OR NO CLOUDS BELOW 12,000 FEET WITH NO
SIGNIFICANT WEATHER AND/OR OBSTRUCTIONS TO VISIBILITY.

NOTE: STATIONS NOT REPORTING VARIABLES SUCH AS SKY/WEATHER OR
PRESSURE ARE PROVIDED BY RAWS AND APRS NETWORKS AND ARE NOT UNDER
NATIONAL WEATHER SERVICE QUALITY CONTROL.

...OBSERVATIONS IN AND NEAR THE EASTERN PANHANDLE OF NEBRASKA...

CITY           SKY/WX    TMP DP  RH WIND       PRES   REMARKS
PINE RIDGE     SUNNY     86  46  24 SW7G20    29.88F
GORDON         FAIR      89  44  21 SW10      29.91F
CHADRON        SUNNY     91  42  18 SW9       29.88F
ALLIANCE       SUNNY     87  46  24 MISG      29.95F
SIDNEY         SUNNY     88  41  19 SW14      30.02F
CRESCENT LAKE    N/A     86  48  26 S12G22      N/A
$$

...OBSERVATIONS IN NORTHERN NEBRASKA AND FAR SOUTHERN SOUTH DAKOTA...

CITY           SKY/WX    TMP DP  RH WIND       PRES   REMARKS
WINNER         FAIR      86  60  41 S12       29.84F
VALENTINE      SUNNY     92  48  22 S14       29.87F
THEDFORD       SUNNY     89  54  30 S14G20    29.94F
AINSWORTH      SUNNY     86  56  36 S13       29.90F
O`NEILL        SUNNY     84  58  41 S7        29.91F
ORD            SUNNY     85  55  35 S9        29.92F
BROKEN BOW     SUNNY     87  55  33 SW12      29.96S
VALENTINE NWR    N/A     88  51  27 S12G18      N/A
HALSEY           N/A     88  51  27 S9G16       N/A
BUTTE            N/A     82  61  49 SE7         N/A
CHAMBERS         N/A     84  58  40 SW6         N/A
EWING            N/A     85  65  50 S3          N/A
$$

...OBSERVATIONS IN SOUTHWEST NEBRASKA AND FAR NORTHEAST COLORADO...

CITY           SKY/WX    TMP DP  RH WIND       PRES   REMARKS
HOLYOKE        FAIR      81  54  39 CALM      30.01R
IMPERIAL       SUNNY     85  53  33 S12       29.97F
OGALLALA       SUNNY     87  57  36 S13       29.95F
NORTH PLATTE   SUNNY     86  60  41 S12       29.95F
MCCOOK         SUNNY     88  59  37 S10       29.97F
LEXINGTON      SUNNY     85  57  37 S10       29.97F
STAPLETON        N/A     88  60  39 CALM        N/A
GOTHENBURG       N/A     87  53  31 S8          N/A
CALLAWAY         N/A     86  63  46 S12         N/A
$$

...OBSERVATIONS IN CENTRAL LINCOLN COUNTY AREA...

CITY           SKY/WX    TMP DP  RH WIND       PRES   REMARKS
N.P. AIRPORT   SUNNY     86  60  41 S12       29.95F
N.P. SOUTHEAST   N/A     87  59  38 S8          N/A
N.P. HILLCREST   N/A     87  60  39 S10         N/A
$$

...SOME OBSERVATIONS FROM AROUND THE REGION...

CITY           SKY/WX    TMP DP  RH WIND       PRES   REMARKS
DENVER         CLOUDY    83  36  18 SW14      30.12R
LIMON          CLOUDY    79  45  29 SW8       30.14S
ASPEN          CLOUDY    68  45  43 S5        30.34S
LARAMIE        CLOUDY    74  37  26 NW17G28   30.23R
CASPER         MOSUNNY   82  30  15 W13       30.05S
CHEYENNE       MOSUNNY   82  34  17 NW15G22   30.14S
SCOTTSBLUFF    SUNNY     90  43  19 NW5       29.96F
GRAND ISLAND   SUNNY     85  63  47 VRB6      29.96F
OMAHA          SUNNY     83  59  44 W14       29.91S
SIOUX FALLS    SUNNY     80  61  52 NW8       29.90R
PIERRE         SUNNY     81  57  43 SE18      29.78F
RAPID CITY     MOSUNNY   78  46  32 N30G36    29.94R
BISMARCK       SUNNY     81  56  42 S12       29.84F
KANSAS CITY    SUNNY     83  63  50 W6        29.93F
HILL CITY      PTSUNNY   91  51  25 S8        29.98F
WICHITA        SUNNY     90  54  29 CALM      29.98F
DODGE CITY     SUNNY     90  55  30 SW9       30.01F
OKLAHOMA CITY  MOSUNNY   91  63  39 CALM      29.97F HX  92
DALLAS         CLOUDY    86  70  58 S5        29.95R HX  90
AMARILLO       SUNNY     88  62  41 S14G21    30.06F
$$




USA.gov is the U.S. government's official web portal to all federal, state and local government web resources and services.